World > North America > United States > Utah > Marion

Hourly Marion, UT Regional Weather

Feedback E-mail the Weather

Quick WX

Marion, UT Weather Maps

°F °C°F °C
Marion Weather Map
UTC Time: 8/19/2022, 11:58
Your Time:

Marion, UT Regional Weather

Expires:202208191200;;308539
ASUS45 KSLC 191110
RWRUT 

UTAH REGIONAL WEATHER ROUNDUP
NATIONAL WEATHER SERVICE SALT LAKE CITY UT
500 AM MDT FRI AUG 19 2022


UTZ101>105-107>111-191200-

NORTHERN UTAH
  
CITY           SKY/WX    TMP DP  RH WIND       PRES   REMARKS
BRIGHAM CITY   PTCLDY    72  54  53 MISG      30.03S                  
HILL AFB       MOCLDY    72  49  44 CALM      30.05S                  
LOGAN          MOCLDY    67  54  63 SW3       30.04R                  
OGDEN          MOCLDY    74  50  42 S5        30.04S                  
SALT LAKE CITY MOCLDY    78  54  43 SE5       30.01S                  
TOOELE VALLEY  MOCLDY    68  52  56 SE3       30.03S                  
WENDOVER       MOCLDY    78  49  35 SE10      30.02S                  
HEBER CITY       N/A     57  48  72 CALM      30.12S                  
WEST JORDAN    MOCLDY    71  57  61 SW6       30.06S                  

$$


SKY/WX - Weather  TMP - Temperature  DP - Dew Point  RH - Humidity
WIND - Wind Direction/Speed PRES - Barometric Pressure VSB - Visibility
WCI - Wind Chill Index E13G22 Wind - East Wind 13 mph/Gusts of 22 mph

Trending Headlines

Marion Radar Loop



Marion Quick Facts


National Two Day Weather Forecast


E-mail the Marion Weather Forecast

Voice your opinion or tell us about page issues...